www.pogodaiklimat.ru

Погода и климат >> Архив погоды >> Канада >> Онтарио >> Аэропорт Маскока


ПОГОДА в Аэропорту Маскока

  • Прогноз погоды в Аэропорту Маскока
  • Монитор погоды в Аэропорту Маскока

АРХИВ ПОГОДЫ в Аэропорту Маскока

Время (UTC), дата Ветер
(напр.,м/с)
 
Видим.   Явления Облачность Т
(С)
Тd
(С)
f
(%)
Тe
(С)
Тes
(С)
Комфортность P
(гПа)
Po
(гПа)
Тmin
(С)
Tmax
(С)
R
(мм)
R24
(мм)
S
(см)
18 15.03 ЮЗ 4 16 км {осадки} 10/10 300 м
[]
+3.6 +2.3 91 -1 -1 1003.2 969.2 +2.8 +7.1 0.5
21 15.03 З 4 16 км слаб. дождь {осадки} 10/10 200 м
[]
+1.8 +1.0 94 -3 -3 1003.8 969.7
00 16.03 З 5 1600 м слаб. снег {осадки} 10/10 100 м
[]
-0.3 -0.9 96 -6 -6 1005.7 971.4 -0.3 +4.0 3
03 16.03 З 5 2400 м слаб. снег {осадки} 10/10 200 м
[]
-2.1 -3.1 93 -9 -9 1007.5 973.1
06 16.03 З 5 2400 м слаб. снег 10/10 300 м
[]
-3.6 -4.9 91 -10 -10 1008.5 974.0 -3.6 +7.1 4
09 16.03 СЗ 6 16 км слаб. снег 10/10 300 м
[]
-5.6 -8.3 81 -13 -13 1011.3 976.6
12 16.03 З 3 16 км слаб. снег 5/5 300 м
[]
-7.5 -9.6 85 -13 -13 1015.3 980.3 -7.7 +7.1
15 16.03 СЗ 5 16 км 10/10 300 м
[]
-5.6 -9.3 75 -13 -13 1017.2 982.1
18 16.03 З 5 16 км слаб. снег 10/10 600 м
[]
-4.6 -8.5 74 -12 -12 1018.1 983.0 -7.7 -3.6
21 16.03 З 6 16 км 10/10 600 м
[]
-4.2 -9.7 65 -11 -11 1018.9 983.7
00 17.03 З 3 4800 м слаб. снег 10/10 300 м
[]
-5.3 -7.6 84 -11 -11 1020.3 984.9 -7.7 -3.8
03 17.03 З 4 16 км 9/9 600 м
[]
-6.8 -11.2 71 -13 -13 1020.9 985.5
06 17.03 СЗ 5 4000 м слаб. снег 10/10 300 м
[]
-7.3 -9.9 82 -14 -14 1021.6 986.2 -7.7 -3.6 91
09 17.03 З 2 16 км 5/5 1000 м
[]
-9.1 -13.8 69 -13 -13 1022.7 987.2
12 17.03 З 2 16 км 10/10 1500 м
[]
-9.9 -11.8 86 -14 -14 1023.3 987.7 -10.9 -3.6
15 17.03 З 4 16 км 10/10 1500 м
[]
-5.6 -11.3 64 -11 -11 1023.8 988.3
18 17.03 З 4 8000 м слаб. снег 10/10 300 м
[]
-3.4 -7.2 75 -9 -9 1022.7 987.3 -10.9 -3.4
21 17.03 З 6 16 км слаб. снег 10/10 600 м
[]
-2.4 -9.5 58 -9 -9 1021.9 986.5
00 18.03 З 3 16 км 3/3 1500 м
[]
-3.9 -10.0 63 -8 -8 1022.8 987.3 -10.9 -2.0
03 18.03 ЮВ 1 16 км ясно -10.4 -11.5 92 -13 -13 1023.2 987.6
06 18.03 ЮВ 1 16 км 9/9 1500 м
[]
-12.2 -13.8 88 -12 -12 1023.3 987.7 -12.8 -2.0 21
09 18.03 ЮЗ 1 16 км 9/9 1500 м
[]
-11.9 -13.4 89 -12 -12 1023.4 987.9
12 18.03 Ю 1 16 км 3/3 <50 м
[]
-14.4 -16.0 88 -17 -17 1024.3 988.6 -16.1 -2.0
15 18.03 СЗ 1 16 км ясно -3.3 -9.9 60 -5 +4 1025.1 989.5
18 18.03 СЗ 6 16 км {осадки} 9/0
[]
-1.6 -14.6 36 -7 -5 1025.4 989.8 -16.1 -0.7 0.8
21 18.03 З 5 16 км {осадки} ясно -0.9 -15.6 32 -6 -4 1025.3 989.8
00 19.03 З 3 16 км 9/0
[]
-3.1 -12.7 47 -7 -7 1026.8 991.0 -16.1 -0.4
03 19.03 З 2 16 км 10/10 1000 м
[]
-3.9 -9.5 65 -7 -7 1027.4 992.0
06 19.03 Ю 1 16 км 10/10 200 м
[]
-5.3 -6.3 93 -8 -8 1027.8 992.4 -16.1 -0.4 22
09 19.03 Ю 1 16 км 10/10 600 м
[]
-6.9 -7.6 95 -9 -9 1027.5 992.1
12 19.03 Ю 1 16 км 5/5 50 м
[]
-10.0 -11.1 92 -12 -12 1028.6 992.9 -11.3 -0.4
15 19.03 Ю 3 16 км 3/3 300 м
[]
-1.2 -5.6 72 -5 -1 1029.1 993.7
18 19.03 З 3 16 км 9/9 1000 м
[]
+1.9 -6.7 53 -1 -0 1028.5 993.2 -11.3 +1.9
21 19.03 З 4 16 км ясно +2.5 -8.5 44 -2 +1 1027.4 992.1
00 20.03 ЮЗ 1 16 км ясно -2.1 -7.4 67 -2 -2 1027.1 991.5 -11.3 +2.8
03 20.03 Ю 1 16 км ясно -5.3 -7.4 85 -8 -8 1026.1 990.8
06 20.03 ЮВ 3 16 км ясно -4.4 -6.5 85 -10 -10 1024.8 989.7 -11.3 +2.8 19
09 20.03 ЮВ 4 9000 м дымка 9/0
[]
-4.0 -6.0 86 -10 -10 1022.7 987.7
12 20.03 Ю 3 6000 м дымка 3/0
[]
-4.0 -5.5 89 -10 -9 1022.7 987.5 -5.7 +2.8
15 20.03 Ю 5 16 км 3/0
[]
+3.8 -5.1 52 -0 +4 1022.2 987.2
18 20.03 Ю 5 16 км 9/9 1500 м
[]
+5.7 -3.7 51 +2 +2 1020.4 985.6 -5.7 +6.3
21 20.03 Ю 5 16 км 10/10 1500 м
[]
+5.3 -3.6 53 +1 +1 1019.0 984.2
00 21.03 ЮВ 2 16 км 9/0
[]
+4.1 -3.7 57 +2 +2 1018.4 983.6 -5.6 +6.6
03 21.03 Ю 2 16 км 10/0 2000 м
[]
+2.1 -2.3 73 -1 -1 1018.4 983.8
06 21.03 ЮВ 1 16 км слаб. дождь 10/10 1000 м
[]
+1.0 -0.6 89 -1 -1 1017.4 982.8 -5.6 +6.6 19
09 21.03 ЮВ 2 16 км 10/10 600 м
[]
+0.9 -1.5 84 -2 -2 1015.7 981.2
12 21.03 ЮВ 3 6000 м слаб. дождь 10/10 300 м
[]
+0.9 0.0 94 -3 -3 1014.9 980.4 +0.6 +6.6 0.3
15 21.03 ЮВ 3 11 км слаб. дождь {осадки} 10/10 300 м
[]
+1.5 +0.2 91 -3 -3 1013.4 978.9
18 21.03 Ю 2 16 км 10/10 600 м
[]
+3.2 +1.2 87 +1 +1 1011.9 977.4 +0.5 +3.2 0.5
21 21.03 Ю 3 16 км 10/10 600 м
[]
+3.5 -0.2 77 -0 -0 1009.2 974.8
00 22.03 ЮЗ 2 8000 м слаб. дождь 10/10 300 м
[]
+2.6 +1.5 92 -0 -0 1009.0 974.6 +0.5 +4.7 0.3
03 22.03 З 3 3200 м слаб. дождь {осадки} 10/10 50 м
[]
+1.1 +0.8 98 -4 -4 1008.1 973.7
06 22.03 З 2 8000 м дымка 10/10 50 м
[]
+0.3 -0.1 97 -4 -4 1006.2 971.9 +0.3 +4.7 0.5
09 22.03 З 1 4800 м слаб. снег 10/10 50 м
[]
0.0 -0.3 98 -2 -2 1004.2 970.0
12 22.03 СЗ 3 6000 м дымка {осадки} 10/10 50 м
[]
-0.1 -0.4 98 -5 -5 1003.5 969.3 -0.2 +4.7 0.3
15 22.03 СЗ 10 6000 м слаб. снег {осадки} 10/10 300 м
[]
-0.9 -3.3 84 -9 -9 1004.4 970.1

 

Местоположение метеостанции Аэропорт Маскока (Онтарио, Канада): широта 44.97 долгота -79.30 высота над уровнем моря 282 м.

В архиве по умолчанию представлена погода в Аэропорту Маскока за последнюю неделю. Архивные данные за месяц целиком и за предыдущие месяцы, начиная с января 2011 года, Вы можете получить, выбрав интересующий диапазон дат из раскрывающегося списка и нажав кнопку "Ввод!".


*Определитесь, кто Вы:
робот инопланетянин человек

Внимание! Время в таблицах - всемирное. Для получения местного времени необходимо прибавить поправку, которая равна -5 ч.

Смотрите также архив погоды в соседних городах и на ближайших метеорологических станциях:

Погода в Беатриче (Онтарио, Канада) (15 км)
Погода в Тадоул Лейк (Манитоба, Канада) (46 км)
Погода в Лагун-Сити (Онтарио, Канада) (49 км)
Погода в Барри (Онтарио, Канада) (59 км)
Погода в Парри-Саунде (Онтарио, Канада) (70 км)
Погода в Питерборо (Онтарио, Канада) (76 км)
Погода на Острове Вестер (Онтарио, Канада) (84 км)
Погода в Коллингвуде (Онтарио, Канада) (89 км)
Погода в Эгберте (Онтарио, Канада) (91 км)
Погода в Бордене (Онтарио, Канада) (94 км)

Пояснения к столбцам:

Ветер - указаны скорость ветра в м/с - средняя за 10 мин, порывы в срок и между сроками (в фигурных скобках) и направление, откуда дует ветер: С - северный, СВ - северо-восточный, В - восточный, ЮВ - юго-восточный, Ю - южный, ЮЗ - юго-западный, З - западный, СЗ - северо-западный.
Видимость - горизонтальная дальность видимости в метрах или километрах. При видимости от 1 до 10 км при отсутствии осадков обычно наблюдается дымка, при ухудшении видимости до 1 км и менее - туман. В сухую погоду видимость может ухудшаться дымом, пылью или мглою.
Явления - указаны атмосферные явления, наблюдавшиеся в срок или в последний час перед сроком; фигурными скобками обозначены явления, наблюдавшиеся между сроками (за 1-3 часа до срока); квадратными скобками обозначены град или гололедные отложения с указанием их диаметра в мм.
Облачность - указаны через наклонную черту общая и нижняя облачность в баллах и высота нижней границы облаков в метрах; квадратными скобками обозначены формы облаков: Ci - перистые, Cs - перисто-слоистые, Cc - перисто-кучевые, Ac - высококучевые, As - высокослоистые, Sc - слоисто-кучевые, Ns - слоисто-дождевые, Cu - кучевые, Cb - кучево-дождевые. Подробнее классификацию облаков см. в Атласе облаков (PDF).
T - Температура воздуха - температура, измеренная на высоте 2 м над землей.
Td - Температура точки росы - температура, при понижении до которой содержащийся в воздухе водяной пар достигнет насыщения.
f - Относительная влажность воздуха - влажноcть воздуха, измеренная на высоте 2 м над землей.
Te - Эффективная температура - температура, которую ощущает одетый по сезону человек в тени. Характеристика душности погоды. При расчете учитывается влияние влажности воздуха и скорости ветра на теплоощущения человека.
Tes - Эффективная температура на солнце - температура, которую ощущает человек, с поправкой на солнечный нагрев. Характеристика знойности погоды. Зависит от высоты солнца над горизонтом, облачности и скорости ветра. Ночью, в пасмурную погоду, а также при ветре 12 м/с и более поправка равна нулю.
P - Атмосферное давление - приведенное к уровню моря атмосферное давление.
Po - Атмосферное давление - измеренное на уровне метеостанции атмосферное давление.
Tmin - Минимальная температура - минимум температуры воздуха на высоте 2 м над землей.
Tmax - Максимальная температура - максимум температуры воздуха на высоте 2 м над землей.
R - Количество осадков - Количество выпавших осадков за период времени, мм. При наведении курсора мыши на число - период времени, за который выпало указанное количество осадков.
R24 - Количество осадков - Количество выпавших осадков за 24 часа, мм.
S - Снежный покров - Высота снежного покрова, см. При наведении курсора мыши на число - состояние снежного покрова и степень покрытия местности в баллах.